Russellville, AR

11:05 PM CDT on March 29, 2017 (GMT -0500)
Russellville Regional

Weather History for KRUE - May, 2014

Change the Weather History Date:

Wednesday, May 14, 2014

  Actual Average (KHOT) Record (KHOT)
Temperature  
Mean Temperature 52 °F -  
Max Temperature 57 °F 82 °F 92 °F (1988)
Min Temperature 46 °F 56 °F 45 °F (1971)
Degree Days  
Heating Degree Days 12    
Growing Degree Days 2 (Base 50)    
Moisture  
Dew Point 46 °F    
Average Humidity 76    
Maximum Humidity 90    
Minimum Humidity 66    
Precipitation  
Precipitation 0.37 in - - ()
Sea Level Pressure  
Sea Level Pressure 30.15 in    
Wind  
Wind Speed 7 mph (NNW)    
Max Wind Speed 14 mph    
Max Gust Speed 23 mph    
Visibility 9 miles    
Events Rain    
Averages and records for this station are not official NWS values.
T = Trace of Precipitation, MM = Missing Value Source: NWS Daily Summary

Daily Weather History Graph

Daily Weather History Graph

Search for Another Location

Airport or City:

Trip Planner

Search our weather history database for the weather conditions in past years. The results will help you decide how hot, cold, wet, or windy it might be!

Date:

Astronomy

May. 14, 2014 Rise Set
Actual Time 6:08 AM CDT 8:08 PM CDT
Civil Twilight 5:40 AM CDT 8:37 PM CDT
Nautical Twilight 5:06 AM CDT 9:11 PM CDT
Astronomical Twilight 4:30 AM CDT 9:48 PM CDT
Moon 8:15 PM CDT (5/14) 6:06 AM CDT (5/14)
Length of Visible Light 14h 56m
Length of Day
13h 59m
Full, 100% of the Moon is Illuminated
May 14
Full
May 14
Full
May 21
Last Quarter
May 28
New
Jun 5
First Quarter

Hourly Weather History & Observations

Time (CDT) Temp. Dew Point Humidity Pressure Visibility Wind Dir Wind Speed Gust Speed Precip Events Conditions
12:53 AM 57.0 °F 48.9 °F 74% 30.18 in 10.0 mi North 4.6 mph - N/A   Overcast
1:08 AM 57.2 °F 48.2 °F 72% 30.19 in 10.0 mi North 5.8 mph - N/A   Overcast
1:33 AM 57.2 °F 48.2 °F 72% 30.18 in 10.0 mi North 6.9 mph - N/A   Overcast
1:53 AM 55.0 °F 48.0 °F 77% 30.16 in 10.0 mi North 3.5 mph - N/A   Mostly Cloudy
2:53 AM 55.0 °F 48.0 °F 77% 30.14 in 10.0 mi NNW 5.8 mph - N/A   Scattered Clouds
4:53 AM 55.0 °F 48.0 °F 77% 30.13 in 10.0 mi NW 6.9 mph - N/A   Overcast
5:53 AM 55.9 °F 48.9 °F 77% 30.17 in 10.0 mi Calm Calm - N/A   Overcast
6:53 AM 54.0 °F 51.1 °F 90% 30.12 in 5.0 mi NE 8.1 mph - 0.10 in Rain Light Rain
7:53 AM 54.0 °F 50.0 °F 86% 30.10 in 10.0 mi Variable 4.6 mph - 0.06 in Rain Light Rain
8:53 AM 53.1 °F 50.0 °F 89% 30.15 in 4.0 mi Variable 5.8 mph - 0.06 in Rain Rain
10:53 AM 53.1 °F 48.9 °F 86% 30.13 in 9.0 mi NW 6.9 mph - 0.05 in Rain Light Rain
11:53 AM 52.0 °F 46.9 °F 83% 30.14 in 6.0 mi NNW 11.5 mph 20.7 mph 0.09 in Rain Rain
12:10 PM 53.6 °F 46.4 °F 77% 30.14 in 10.0 mi North 12.7 mph - 0.01 in Rain Light Rain
12:53 PM 52.0 °F 44.1 °F 74% 30.13 in 10.0 mi North 9.2 mph - 0.01 in   Overcast
1:53 PM 54.0 °F 44.1 °F 69% 30.15 in 10.0 mi NNW 10.4 mph - N/A   Overcast
2:53 PM 55.0 °F 45.0 °F 69% 30.16 in 10.0 mi NW 10.4 mph 19.6 mph N/A   Overcast
3:37 PM 53.6 °F 44.6 °F 72% 30.15 in 10.0 mi NW 11.5 mph - N/A   Overcast
4:11 PM 55.4 °F 44.6 °F 67% 30.15 in 10.0 mi NNW 12.7 mph 23.0 mph N/A   Overcast
4:53 PM 54.0 °F 44.1 °F 69% 30.14 in 10.0 mi NNW 10.4 mph 17.3 mph N/A   Overcast
5:21 PM 55.4 °F 44.6 °F 67% 30.15 in 10.0 mi NNW 13.8 mph 21.9 mph N/A   Overcast
5:53 PM 54.0 °F 43.0 °F 66% 30.14 in 10.0 mi NNW 11.5 mph 19.6 mph N/A   Overcast
6:53 PM 55.0 °F 44.1 °F 67% 30.14 in 10.0 mi NNW 8.1 mph - N/A   Overcast
7:53 PM 53.1 °F 43.0 °F 69% 30.17 in 10.0 mi NW 8.1 mph - N/A   Clear
8:53 PM 51.1 °F 42.1 °F 71% 30.18 in 10.0 mi NW 4.6 mph - N/A   Clear
9:53 PM 48.0 °F 45.0 °F 89% 30.19 in 10.0 mi Calm Calm - N/A   Mostly Cloudy
10:53 PM 48.0 °F 44.1 °F 86% 30.19 in 10.0 mi Calm Calm - N/A   Overcast
11:53 PM 46.0 °F 43.0 °F 89% 30.18 in 10.0 mi Calm Calm - N/A   Clear